This demonstration page uses our WeatherBlox Daily Observations layout. Learn more.

Left ArrowRight Arrow

38.88101, -77.10428

Hourly Observations for May 4, 2022

Temp ( °F °C ) Dew Point ( °F °C ) Humidity (%) Winds ( mph kmh ) Pressure ( in mb ) Visibility ( mi km ) Precip ( " mm )
12:03 am 00:03 Cloudy 59 15 55 12.8 87 87 SE 8 13 30.03 1017 8 13 0.00 0.00
12:33 am 00:33 Cloudy with Nearby Thunderstorms 59 15 56 13.3 90 90 N 7 11 30.09 1019 2 3 0.00 0.00
12:43 am 00:43 Cloudy with Thunderstorms 59 15 56 13.3 90 90 Calm 30.09 1019 2 3 0.02 0.51
12:52 am 00:52 Cloudy with Strong Thunderstorms 59 15 56 13.3 90 90 E 15 24 30.01 1016 1 2 0.21 5.33
1:00 am 01:00 Cloudy with Thunderstorms 58 14.4 55 12.8 90 90 ESE 15 24 30.02 1017 3 4 0.16 4.06
1:08 am 01:08 Cloudy with Thunderstorms 58 14.4 55 12.8 90 90 VRB 7 11 30.02 1017 4 6 0.18 4.57
1:10 am 01:10 Cloudy with Rain 58 14.4 55 12.8 90 90 SSE 8 13 30.02 1017 4 6 0.19 4.83
1:19 am 01:19 Cloudy with Thunderstorms 58 14.4 55 12.8 90 90 SSE 12 19 30.01 1016 6 10 0.22 5.59
1:52 am 01:52 Cloudy with Thunderstorms 57 13.9 54 12.2 90 90 Calm 30.00 1016 5 8 0.31 7.87
2:31 am 02:31 Cloudy with Rain 58 14.4 55 12.8 90 90 S 8 13 30.04 1017 3 5 0.24 6.10
2:41 am 02:41 Cloudy with Thunderstorms 58 14.4 55 12.8 90 90 SSW 8 13 30.03 1017 5 8 0.27 6.86
2:52 am 02:52 Cloudy with Thunderstorms 58 14.4 55 12.8 90 90 ESE 5 7 30.00 1016 6 10 0.29 7.37
3:16 am 03:16 Cloudy with Light Rain 58 14.4 55 12.8 90 90 SE 3 6 29.99 1016 9 14 0.04 1.02
3:52 am 03:52 Cloudy with Light Rain 57 13.9 54 12.2 90 90 SE 6 9 29.95 1014 10 16 0.06 1.52
4:21 am 04:21 Cloudy 58 14.4 55 12.8 90 90 S 9 15 29.98 1015 10 16 0.00 0.00
4:52 am 04:52 Cloudy 58 14.4 54 12.2 87 87 S 3 6 29.98 1015 10 16 0.00 0.00
4:59 am 04:59 Cloudy 58 14.4 54 12.2 87 87 Calm 29.97 1015 10 16 0.00 0.00
5:35 am 05:35 Cloudy with Light Rain 58 14.4 54 12.2 87 87 NNE 3 6 29.95 1014 10 16 0.00 0.00
5:52 am 05:52 Mostly Cloudy 58 14.4 54 12.2 87 87 E 6 9 29.97 1015 10 16 0.00 0.00
6:04 am 06:04 Mostly Cloudy with Light Rain 58 14.4 54 12.2 87 87 E 5 7 29.97 1015 10 16 0.00 0.00
6:52 am 06:52 Cloudy 58 14.4 54 12.2 87 87 SE 3 6 29.96 1015 10 16 0.01 0.25
7:52 am 07:52 Cloudy 59 15 56 13.3 90 90 S 3 6 29.98 1015 10 16 0.00 0.00
8:52 am 08:52 Cloudy 60 15.6 56 13.3 86 86 S 7 11 29.97 1015 10 16 0.00 0.00
9:52 am 09:52 Cloudy with Mist and Fog 61 16.1 57 13.9 87 87 S 6 9 29.97 1015 6 10 0.00 0.00
10:52 am 10:52 Cloudy 62 16.7 58 14.4 86 86 S 6 9 29.97 1015 7 11 0.00 0.00
11:52 am 11:52 Cloudy 64 17.8 59 15 84 84 SSE 5 7 29.96 1015 8 13 0.00 0.00
12:13 pm 12:13 Cloudy 64 17.8 59 15 84 84 S 5 7 29.96 1015 8 13 0.00 0.00
12:52 pm 12:52 Cloudy 65 18.3 59 15 81 81 SSE 3 6 29.95 1014 8 13 0.00 0.00
1:25 pm 13:25 Cloudy 66 18.9 60 15.6 81 81 SSE 5 7 29.95 1014 8 13 0.00 0.00
1:52 pm 13:52 Cloudy 67 19.4 61 16.1 81 81 SSE 3 6 29.95 1014 8 13 0.00 0.00
2:43 pm 14:43 Cloudy 67 19.4 60 15.6 79 79 Calm 29.94 1014 7 11 0.00 0.00
2:52 pm 14:52 Cloudy 69 20.6 61 16.1 76 76 NE 3 6 29.94 1014 7 11 0.00 0.00
3:34 pm 15:34 Mostly Cloudy 69 20.6 61 16.1 76 76 SSE 5 7 29.93 1013 9 14 0.00 0.00
3:52 pm 15:52 Mostly Cloudy 71 21.7 62 16.7 73 73 Calm 29.93 1013 9 14 0.00 0.00
4:52 pm 16:52 Mostly Cloudy 72 22.2 62 16.7 71 71 S 5 7 29.92 1013 10 16 0.00 0.00
5:52 pm 17:52 Mostly Cloudy 73 22.8 62 16.7 69 69 S 3 6 29.92 1013 10 16 0.00 0.00
6:52 pm 18:52 Mostly Cloudy 73 22.8 63 17.2 71 71 S 6 9 29.93 1013 10 16 0.00 0.00
7:52 pm 19:52 Mostly Cloudy 70 21.1 62 16.7 76 76 ENE 7 11 29.94 1014 10 16 0.00 0.00
8:52 pm 20:52 Mostly Cloudy 68 20 60 15.6 76 76 NNE 3 6 29.97 1015 10 16 0.00 0.00
9:52 pm 21:52 Partly Cloudy 68 20 52 11.1 57 57 NNW 12 19 30.01 1016 10 16 0.00 0.00
10:52 pm 22:52 Mostly Cloudy 68 20 52 11.1 57 57 NNW 9 15 30.04 1017 10 16 0.00 0.00
11:52 pm 23:52 Partly Cloudy 66 18.9 52 11.1 61 61 NNW 7 11 30.04 1017 10 16 0.00 0.00

Powered by AerisWeather